Theta_e
339 343 341 343 343 341 340 336 338 337 336 334 334 335 336 334 333 333 332 351 350 350 354 355 354 353 353 353 353 355 356 355 353 351 350 349 349 350 350 350 350 349 349
341 346 342 345 343 341 340 341 342 339 339 340 340 342 342 343 344 343 341 340 350 348 351 354 354 354 354 355 354 354 354 354 354 352 350 349 349 349 350 350 350 350 349
346 352 349 347 346 348 347 347 347 347 345 346 342 342 343 346 340 343 346 344 345 350 349 351 352 354 353 354 356 355 353 354 354 352 351 349 348 348 349 350 350 350 349
353 352 350 349 350 347 340 336 337 334 336 344 342 345 344 344 342 343 342 342 345 345 349 351 351 351 352 353 354 356 355 352 353 352 351 350 350 348 348 349 350 350 349
354 351 351 349 349 342 336 334 329 335 332 340 341 338 338 339 339 341 340 342 342 343 341 345 346 345 342 347 354 355 355 355 352 352 351 351 350 350 349 349 349 349 349
355 352 350 351 348 343 334 334 327 328 334 338 341 339 337 337 338 336 337 339 338 338 337 339 336 333 338 337 338 352 356 355 355 353 351 349 349 350 349 349 348 348 348
356 352 349 348 348 345 342 339 340 343 340 338 330 327 328 330 329 332 330 331 335 338 336 337 336 332 330 333 336 343 354 355 355 355 351 347 348 349 349 349 348 348 347
351 352 349 347 348 345 343 344 341 337 334 333 326 324 318 320 326 327 326 329 330 334 335 333 334 333 333 333 345 347 352 355 356 353 351 347 347 348 349 349 349 348 347
352 351 350 348 345 342 344 344 339 334 328 329 327 321 313 314 318 322 326 328 328 328 333 335 337 337 334 333 343 344 348 348 353 354 351 348 348 349 349 348 348 347 347
349 350 349 347 344 340 334 335 339 334 329 323 323 327 325 322 318 315 320 325 326 326 324 334 334 335 332 331 341 344 341 341 347 351 351 351 350 350 349 349 348 347 347
349 351 348 343 339 336 333 332 330 329 328 326 323 321 319 317 316 316 311 314 316 319 321 322 323 332 336 337 339 336 335 335 338 339 344 347 348 348 347 348 349 348 348
346 344 343 338 337 333 331 327 328 327 328 325 325 322 317 314 314 313 309 310 310 314 318 317 318 324 325 330 338 337 334 331 330 329 331 333 337 343 345 346 348 351 352
334 335 335 334 335 331 329 327 327 326 327 325 324 322 321 319 315 313 311 307 308 309 311 314 313 319 321 324 326 334 335 329 328 328 328 329 331 333 336 340 343 344 344
332 332 334 333 332 332 329 329 327 326 325 323 323 324 321 319 317 314 311 308 304 305 306 307 314 313 318 322 329 333 328 331 330 326 326 326 327 328 330 332 334 335 336
334 331 332 332 331 332 330 327 326 323 324 323 323 322 322 323 321 318 315 312 309 302 302 308 309 314 316 319 322 320 320 328 329 326 324 324 325 325 325 326 327 329 331
329 331 333 332 331 330 328 328 327 325 324 325 324 322 322 322 321 319 318 316 312 309 306 309 311 312 320 322 321 317 317 324 323 323 324 323 322 322 322 322 323 325 327
323 326 327 326 328 330 331 328 326 325 325 324 324 322 322 321 321 320 317 316 314 312 311 311 312 314 315 315 316 318 321 318 321 323 322 321 320 319 320 320 320 322 323
322 321 323 322 323 324 323 324 326 328 326 324 324 324 323 325 320 321 320 318 317 315 312 313 313 312 314 315 317 314 316 317 316 321 320 320 319 319 319 318 317 317 317
316 317 318 318 319 319 318 318 318 320 322 323 323 323 323 322 321 321 318 318 317 319 316 314 314 314 314 314 313 312 313 315 321 324 321 321 322 320 318 317 316 316 314
314 314 314 315 315 315 315 315 314 313 312 314 315 317 318 319 320 320 319 318 319 317 318 316 316 315 315 315 312 313 309 311 312 318 322 322 320 321 319 318 317 317 314
312 313 312 312 312 312 314 309 307 307 307 307 309 310 310 313 316 314 313 313 314 315 315 314 314 314 313 310 309 312 309 308 308 311 315 315 318 320 322 322 321 319 315
309 310 309 309 308 311 306 304 303 302 304 305 305 307 309 313 312 310 309 310 310 309 308 310 312 312 312 309 309 307 306 305 303 308 312 310 313 314 320 324 311 311 311
304 304 305 305 305 305 300 299 300 298 300 301 302 303 305 309 308 308 308 307 307 307 308 308 307 308 310 312 309 307 307 305 305 307 307 305 309 310 317 320 308 310 312
300 300 300 301 301 303 298 296 298 296 296 297 299 300 301 303 303 305 306 306 306 307 307 309 309 309 311 313 312 314 313 313 310 309 309 304 307 310 317 311 306 307 309
295 295 296 296 295 295 296 296 296 297 297 296 297 298 300 300 299 298 300 300 301 302 305 304 303 303 302 303 308 315 311 310 308 306 305 306 308 311 315 313 310 304 302
292 293 292 293 294 295 296 295 295 294 294 294 296 297 299 299 297 296 298 299 298 300 303 305 309 308 303 305 303 311 313 309 305 302 308 306 305 310 309 315 308 309 306
Wind_Speed
5 5 5 5 5 4 5 5 6 7 7 7 7 7 6 5 6 4 2 12 12 13 14 14 13 13 14 13 13 15 16 16 16 16 17 18 19 17 16 15 14 14 13
5 4 5 5 5 5 5 5 5 4 5 4 6 8 6 6 7 6 4 5 13 14 13 14 14 15 16 16 16 15 14 16 16 15 17 15 17 17 18 17 17 16 16
7 6 5 4 5 5 5 4 8 9 2 3 7 6 2 4 6 5 6 4 5 12 13 15 15 17 16 15 15 16 16 15 17 16 16 17 16 16 16 16 17 17 17
7 6 4 4 4 3 6 4 4 4 12 6 4 5 3 3 7 9 9 5 5 5 7 15 14 15 17 15 15 17 17 15 15 16 18 15 16 15 16 16 17 17 17
10 6 3 3 3 5 5 6 2 3 7 10 4 2 2 4 6 2 4 5 4 5 6 14 20 16 21 20 17 17 17 15 16 18 16 16 17 16 16 16 17 17 17
9 6 5 4 3 5 3 3 6 7 11 6 3 4 4 4 5 4 3 5 5 8 4 4 4 4 17 20 22 25 18 18 16 17 17 16 16 16 17 17 18 18 18
10 8 5 5 4 4 7 9 8 7 0 3 3 4 4 4 5 3 3 4 4 3 2 0 4 2 5 20 25 28 22 19 17 19 16 15 16 17 17 18 18 19 18
9 7 7 6 5 4 5 4 3 1 1 1 3 1 3 5 4 4 3 2 4 1 2 2 4 5 6 3 11 15 16 17 15 18 16 15 17 17 17 19 19 20 19
8 7 6 5 3 2 4 4 5 6 3 1 2 4 0 4 3 2 1 1 4 3 3 5 5 5 8 5 7 3 3 13 19 18 14 13 14 16 17 17 17 19 20
9 7 8 7 4 4 4 3 5 4 4 3 2 2 2 4 2 4 3 1 2 3 4 4 4 8 8 7 10 5 3 2 22 18 14 12 12 15 16 17 17 18 19
8 7 7 6 6 5 5 6 5 5 4 3 3 1 1 1 3 3 3 5 2 4 2 4 3 4 6 5 4 3 3 9 9 12 8 8 11 11 11 8 12 16 19
5 5 6 7 6 6 5 5 5 5 5 4 3 3 4 3 3 2 2 4 3 4 2 2 4 3 3 1 2 2 4 5 4 4 4 8 11 10 10 10 11 11 16
1 5 5 5 5 5 6 4 4 4 5 4 5 4 3 4 3 3 3 4 3 4 2 2 3 3 2 2 2 2 2 1 4 4 2 6 9 12 12 11 12 13 14
3 6 7 6 7 6 4 3 3 4 5 5 6 5 3 5 3 3 4 3 3 3 2 5 3 3 1 1 2 3 1 6 8 8 8 11 11 12 10 11 13 13 14
4 7 6 8 7 7 7 6 4 5 5 5 6 6 5 5 4 5 4 4 5 3 4 5 3 4 2 2 3 2 4 7 8 11 11 12 14 14 12 13 14 14 14
7 5 4 2 1 4 6 6 5 6 6 6 5 7 6 5 6 5 5 5 4 5 4 5 5 5 4 3 5 3 5 9 8 10 13 14 13 14 14 16 15 15 14
6 7 6 6 6 5 6 5 7 7 8 8 7 7 9 7 6 6 4 4 4 4 8 4 4 3 4 4 6 5 5 6 6 12 13 11 13 14 14 14 14 12 13
5 3 2 3 4 5 4 4 7 7 7 8 10 7 9 7 8 8 5 8 6 5 4 12 6 4 6 6 6 5 5 4 5 10 12 14 14 12 12 12 11 12 10
7 7 6 7 6 5 5 6 5 6 7 7 8 10 13 9 10 8 7 6 5 4 4 4 5 3 4 3 4 4 5 2 3 7 4 6 13 14 12 11 11 11 10
5 6 6 6 6 6 6 7 8 7 6 5 5 6 6 7 8 9 7 8 7 8 8 8 9 8 7 6 4 8 5 3 4 3 2 2 5 10 10 11 12 12 11
6 7 7 7 7 6 5 5 5 6 7 7 6 6 6 6 8 6 4 5 5 6 7 9 10 9 8 3 5 5 4 3 4 3 2 1 2 4 7 11 10 11 11
7 5 6 5 6 4 9 8 6 5 6 6 6 5 6 7 7 7 5 7 7 9 10 6 7 9 10 4 4 5 4 3 3 2 1 4 1 4 5 5 8 11 10
6 7 7 7 7 6 4 6 6 4 5 6 6 6 7 8 7 8 10 11 11 10 11 9 11 12 12 9 5 4 5 4 5 4 2 4 1 4 5 2 9 10 5
7 6 7 7 7 6 2 0 8 6 5 6 7 8 9 9 7 8 10 12 13 10 8 8 9 9 9 8 7 9 11 9 3 3 4 5 1 4 2 1 8 8 2
6 6 8 8 8 7 12 15 15 12 12 14 13 14 14 15 15 15 13 15 16 15 11 16 20 19 17 16 13 6 6 7 7 4 4 4 3 3 2 3 3 7 6
8 8 12 12 15 14 13 12 12 6 9 10 11 11 15 13 14 14 12 12 12 13 12 13 11 8 9 11 17 13 10 8 5 3 5 4 2 2 3 2 3 2 4
Wind_Direction
217 203 187 179 185 184 193 210 208 213 221 226 238 244 232 251 259 251 195 198 199 210 216 221 219 223 229 228 236 223 220 227 219 216 217 213 200 205 211 208 209 208 215
212 208 201 182 193 186 192 212 219 223 246 241 260 246 228 244 268 255 235 216 204 218 225 232 229 229 232 226 226 229 227 229 230 231 212 226 232 208 208 211 208 208 209
205 207 207 220 203 183 185 39 15 344 330 207 244 254 91 267 258 264 257 243 227 218 225 237 236 232 238 237 234 232 232 234 228 224 231 220 222 228 222 218 219 212 208
200 196 196 201 225 62 106 95 87 16 311 303 298 273 197 241 290 288 270 255 244 233 223 231 237 238 235 234 236 239 239 228 236 228 229 227 224 224 230 228 228 225 218
205 185 184 232 130 120 119 129 100 140 227 280 253 269 178 211 232 274 298 300 315 310 16 28 26 12 359 324 269 236 240 236 224 232 228 225 222 219 221 226 230 234 227
196 176 185 199 145 130 119 157 155 196 217 230 294 316 298 309 338 347 29 60 29 77 85 107 120 9 323 315 315 282 242 240 230 233 228 221 218 221 220 224 225 229 232
180 176 182 202 204 180 182 185 205 185 61 56 46 334 322 287 283 119 53 31 25 89 256 35 166 105 256 282 295 279 257 242 236 234 227 220 219 220 218 221 222 228 233
180 169 175 198 202 193 230 214 167 132 145 138 155 116 325 332 340 353 45 50 343 351 261 263 200 213 251 203 274 252 254 246 243 242 231 218 222 224 224 222 222 221 225
172 169 174 177 222 197 257 192 166 157 169 347 130 157 355 228 348 343 326 326 322 322 209 263 240 251 269 258 267 293 10 284 262 248 238 224 223 225 228 228 229 225 223
172 178 182 180 180 164 195 211 182 152 137 179 331 228 203 156 157 334 327 314 3 293 299 209 230 244 253 263 289 291 292 243 271 246 234 228 235 233 228 227 225 231 226
164 169 180 157 174 161 204 170 147 141 146 144 175 236 356 320 162 151 264 318 342 309 306 312 257 248 241 243 276 255 4 273 273 282 270 257 249 249 247 245 238 234 235
146 188 183 175 169 177 185 187 162 165 166 169 180 187 177 197 225 141 191 272 250 276 276 323 354 325 316 339 345 211 49 60 32 348 347 321 312 289 273 259 257 248 248
169 183 210 172 165 189 180 159 162 188 191 191 201 219 203 219 180 172 152 254 235 279 277 283 287 275 296 161 234 144 77 238 224 237 226 249 259 268 269 259 258 260 263
202 222 202 183 171 162 177 177 192 203 201 213 217 220 218 242 206 184 183 167 290 286 298 243 284 273 292 248 254 60 287 269 290 288 275 268 274 263 257 249 248 251 254
243 230 195 181 177 173 195 193 208 225 208 224 231 232 221 239 230 231 213 186 181 224 252 285 238 262 256 229 269 302 299 268 258 262 261 260 267 278 275 265 252 249 245
20 43 71 51 154 207 205 196 217 229 214 228 221 226 232 233 236 232 231 226 195 202 238 206 246 234 229 250 269 294 292 287 294 265 254 256 263 270 271 269 259 250 246
38 4 18 339 317 279 248 227 229 228 223 232 235 225 234 229 232 236 238 233 235 196 258 269 219 229 241 265 272 271 260 274 264 261 262 254 256 255 259 263 262 248 253
348 341 317 358 317 307 289 270 264 252 233 237 246 239 245 246 237 239 236 243 242 230 212 269 252 245 261 256 229 228 253 265 288 287 283 282 290 281 269 267 259 258 248
336 337 342 342 327 317 308 300 269 262 270 275 269 260 260 253 254 251 243 241 242 242 230 234 262 231 245 262 270 258 241 211 249 277 321 342 329 291 286 278 267 268 257
315 329 302 292 294 299 303 302 299 305 310 308 307 303 308 293 274 269 251 243 244 257 257 256 263 261 253 243 229 266 270 227 250 249 302 326 305 318 305 285 270 262 254
261 255 261 266 273 283 286 312 324 306 300 297 293 290 283 274 286 265 271 281 274 262 264 262 262 259 254 228 220 249 217 222 247 224 271 296 15 335 323 305 270 262 256
325 330 326 322 317 304 306 4 30 347 323 310 303 311 307 300 289 299 290 253 261 293 273 254 262 259 257 220 217 206 191 189 247 218 62 302 65 303 287 304 338 309 247
343 343 348 352 347 353 65 70 28 330 301 291 294 289 291 284 302 295 285 288 288 271 237 257 266 254 254 234 210 216 209 185 196 244 109 277 141 280 266 329 356 336 256
354 340 333 334 326 317 155 87 328 311 302 284 284 288 284 277 264 277 283 281 274 264 267 269 251 250 251 256 227 237 244 250 212 225 149 253 204 264 232 98 30 18 14
346 336 329 324 315 301 296 297 300 296 291 287 283 277 273 271 265 265 275 277 274 268 264 260 256 254 252 246 238 235 222 211 227 216 203 185 237 272 224 169 82 60 50
302 302 297 286 282 284 289 286 287 279 278 285 282 274 272 266 270 264 265 268 268 270 272 269 265 251 250 248 233 226 234 225 216 201 211 171 178 201 302 154 138 129 79